Flag for Australia Weather past 2 weeks in Toowoomba, Queensland, Australia

Now
77 °F

Pleasantly warm.


Feels Like: 78 °F
Forecast: 49 / 80 °F
Wind: 15 mph from East

Location: Oakey Aerodrome

Current Time: Oct 22, 2014 at 4:58:02 PM

Latest Report: Oct 22, 2014 at 4:00 PM


Visibility: N/A

Pressure: 30.13 "Hg

Humidity: 31%

Dew point: 44 °F

Location of ToowoombaLocation

Historic Weather in Toowoomba — Graph

°F

Toowoomba temperature yesterday

Maximum temperature yesterday: 76 °F (at 3:00 PM)
Minimum temperature yesterday: 62 °F (at 10:00 PM)
Average temperature yesterday: 67 °F

Past Weeks' High & Low Weather Summary

 TemperatureHumidityPressure
High91 °F (Oct 8, 3:00 PM)89% (Oct 14, 6:00 AM)30.32 "Hg (Oct 14, 6:00 AM)
Low38 °F (Oct 15, 4:00 AM)11% (Oct 17, 3:00 PM)29.78 "Hg (Oct 14, 3:00 AM)
Average66 °F55%30.07 "Hg
* Reported Oct 7 3:00 PM — Oct 22 3:00 PM, Toowoomba, Weather by CustomWeather, © 2014

Note: Actual official high and low records may vary slightly from our data, if they occured in-between our weather recording intervals... More about our weather records

Advertising

Toowoomba weather history for previous 24 hours

 ConditionsComfort  
Time TempWeatherWind HumidityBarometerVisibility
3:00 PM
Oct 22
77 °FPassing clouds.12 mph33%30.12 "HgN/A
1:00 PM76 °FMild.9 mph39%30.17 "HgN/A
12:00 PM74 °FPassing clouds.14 mph38%30.20 "HgN/A
10:00 AM70 °FMild.15 mph45%30.25 "HgN/A
9:00 AM68 °FMild.17 mph52%30.27 "HgN/A
7:00 AM62 °FCool.17 mph66%30.26 "HgN/A
6:00 AM58 °FCool.9 mph76%30.25 "HgN/A
4:00 AM54 °FCool.6 mph80%30.24 "HgN/A
3:00 AM55 °FCool.10 mph78%30.23 "HgN/A
1:00 AM57 °FCool.13 mph74%30.27 "HgN/A
12:00 AM59 °FCool.12 mph72%30.30 "HgN/A
10:00 PM
Oct 21
62 °FCool.17 mph66%30.31 "HgN/A
9:00 PM63 °FMild.17 mph63%30.30 "HgN/A
7:00 PM66 °FMild.15 mph58%30.26 "HgN/A
6:00 PM70 °FMild.18 mph52%30.24 "HgN/A
4:00 PM75 °FMild.14 mph42%30.21 "HgN/A
Weather by CustomWeather, © 2014

See weather overviewHow to use our weather pages